www.pogodaiklimat.ru

Погода и климат >> Архив погоды >> Камерун >> Douala


АРХИВ ПОГОДЫ в Douala

Время (UTC), дата Ветер
(напр.,м/с)
 
Видим.   Явления Облачность Т
(С)
Тd
(С)
f
(%)
Тe
(С)
Тes
(С)
Комфортность P
(гПа)
Po
(гПа)
Тmin
(С)
Tmax
(С)
R
(мм)
R24
(мм)
S
(см)
06 13.01 штиль 0 2000 м дымка 9/8 300 м
[Cb calv Ci sp]
+25.2 +24.6 96 +35 +35 очень
душно
1010.7 1009.7 +24.3
09 13.01 Ю 1 4000 м дымка 9/8 480 м
[Cb calv Ci sp]
+29.1 +24.9 78 +42 +44 опасность
перегрева
1012.1 1011.1
12 13.01 ЮЗ 1 6000 м мгла 9/9 480 м
[Cb calv]
+32.5 +23.7 60 +44 +46 опасность
перегрева
1010.1 1009.1
15 13.01 З 2 6000 м мгла 9/3 600 м
[Cb calv Ac trans]
+31.0 +24.7 69 +44 +46 опасность
перегрева
1007.5 1006.5
18 13.01 З 1 6000 м мгла 9/3 480 м
[Cb calv Ci sp]
+28.5 +25.3 83 +42 +42 опасность
перегрева
1009.2 1008.2 +32.5
21 13.01 штиль 0 6000 м 9/3 480 м
[Cb calv Ci sp]
+26.7 +25.0 90 +38 +38 очень
душно
1011.8 1010.8
00 14.01 штиль 0 6000 м 8/3 480 м
[Cb calv Ci sp]
+25.1 +24.2 95 +35 +35 очень
душно
1011.3 1010.3
03 14.01 штиль 0 6000 м дымка 9/5 480 м
[Cb calv Ci sp]
+25.4 +25.4 100 +37 +37 очень
душно
1010.4 1009.4
06 14.01 штиль 0 2000 м дымка 6/5 480 м
[Cb calv Ci sp]
+25.0 +24.5 97 +35 +35 очень
душно
1011.6 1010.6 +24.8
09 14.01 Ю 1 4000 м мгла 9/6 480 м
[Cb calv As op Ci sp]
+28.6 +24.7 79 +41 +44 опасность
перегрева
1012.6 1011.6
12 14.01 ЮЗ 2 4000 м мгла 9/9 480 м
[Cb calv Ci sp]
+32.1 +23.7 61 +43 +45 опасность
перегрева
1010.0 1009.0
18 14.01 ЮЗ 1 4000 м дымка 8/4 480 м
[Cb calv Ci sp]
+28.3 +24.7 81 +40 +40 очень
душно
1009.5 1008.5 +32.0
21 14.01 Ю 1 4000 м дымка 8/4 480 м
[Cb calv Ci sp]
+26.8 +25.1 90 +39 +39 очень
душно
1012.0 1011.0
00 15.01 штиль 0 4000 м дымка 8/6 400 м
[Cb calv Ci sp]
+25.8 +25.3 97 +37 +37 очень
душно
1011.5 1010.5
03 15.01 штиль 0 6000 м гроза без осадков 9/9 400 м
[Cb cap]
+25.7 +24.7 94 +36 +36 очень
душно
1010.6 1009.6
06 15.01 Ю 1 2000 м гроза без осадков 9/6 400 м
[Cb cap Ci sp]
+24.5 +23.8 96 +33 +34 очень
душно
1011.4 1010.4 +24.3
09 15.01 Ю 1 6000 м дымка {гроза} 8/5 480 м
[Cb calv Ci sp]
+29.0 +25.1 80 +42 +48 опасность
перегрева
1012.5 1011.5
12 15.01 З 1 6000 м мгла 8/8 480 м
[Cb calv]
+31.6 +24.7 67 +45 +49 опасность
перегрева
1010.8 1009.8
15 15.01 З 2 6000 м мгла 9/4 600 м
[Cb calv Ci sp]
+31.5 +24.8 68 +45 +48 опасность
перегрева
1008.4 1007.4
18 15.01 ЮЗ 2 6000 м мгла 9/5 480 м
[Cb calv Ci sp]
+28.2 +23.6 76 +38 +38 очень
душно
1009.1 1008.1 +32.6
21 15.01 штиль 0 6000 м дымка 6/4 480 м
[Cb calv Ci sp]
+26.0 +25.2 95 +37 +37 очень
душно
1011.7 1010.7
00 16.01 штиль 0 6000 м дымка 6/6 480 м
[Cb calv]
+26.5 +25.4 94 +39 +39 очень
душно
1011.8 1010.8
03 16.01 штиль 0 6000 м дымка 8/8 480 м
[Cb calv]
+25.7 +25.2 97 +37 +37 очень
душно
1010.5 1009.5
06 16.01 штиль 0 2000 м дымка 9/6 480 м
[Cb calv Ci sp]
+25.3 +24.6 96 +36 +36 очень
душно
1011.2 1010.2 +25.1
09 16.01 В 1 6000 м 9/9 480 м
[Cb calv]
+28.8 +25.3 81 +42 +43 опасность
перегрева
1012.8 1011.8
12 16.01 штиль 0 6000 м мгла 9/6 480 м
[Cb calv Ci sp]
+31.8 +24.0 63 +43 +52 опасность
перегрева
1011.1 1010.1
18 16.01 ЮЗ 1 6000 м мгла 9/5 480 м
[Cb calv Ci sp]
+28.2 +25.1 83 +41 +41 опасность
перегрева
1009.3 1008.3 +33.0
21 16.01 штиль 0 6000 м 9/6 480 м
[Cb calv Ci sp]
+27.4 +25.7 90 +40 +40 очень
душно
1011.6 1010.6
00 17.01 штиль 0 6000 м 9/6 480 м
[Cb calv Ci sp]
+26.1 +24.7 92 +37 +37 очень
душно
1011.2 1010.2
03 17.01 штиль 0 2800 м дымка 9/6 480 м
[Cb calv Ci sp]
+25.0 +24.7 98 +35 +35 очень
душно
1010.0 1009.0
09 17.01 З 1 6000 м мгла 9/9 480 м
[Cb calv]
+29.0 +24.2 75 +40 +42 очень
душно
1011.9 1010.9
12 17.01 В 2 6000 м мгла 8/8 480 м
[Cb calv]
+32.7 +23.6 59 +44 +47 опасность
перегрева
1009.1 1008.1
15 17.01 ЮЗ 2 6000 м мгла 9/5 480 м
[Cb calv Ci sp]
+31.5 +24.5 66 +44 +46 опасность
перегрева
1007.0 1006.0
18 17.01 ЮЗ 1 6000 м мгла 9/4 480 м
[Cb calv Ci sp]
+28.7 +24.6 79 +41 +41 опасность
перегрева
1008.3 1007.3 +33.7
21 17.01 штиль 0 6000 м 9/6 480 м
[Cb calv Ci sp]
+27.6 +24.2 82 +39 +39 очень
душно
1010.6 1009.6
00 18.01 штиль 0 6000 м 9/6 480 м
[Cb calv Ci sp]
+25.5 +24.2 93 +35 +35 очень
душно
1010.3 1009.3
03 18.01 штиль 0 2800 м дымка 9/5 480 м
[Cb calv Ci sp]
+24.9 +24.2 96 +34 +34 очень
душно
1009.5 1008.5
06 18.01 штиль 0 2800 м дымка 9/6 480 м
[Cb calv Ci sp]
+24.5 +23.5 94 +33 +33 очень
душно
1010.0 1009.0 +24.0
09 18.01 С 1 4000 м мгла 8/4 480 м
[Cb calv Ci sp]
+29.0 +22.5 68 +38 +45 очень
душно
1011.4 1010.4
12 18.01 ЮЗ 1 4000 м мгла 9/5 480 м
[Cb calv Ci sp]
+33.5 +20.4 46 +40 +49 очень
душно
1009.7 1008.7
15 18.01 Ю 3 4000 м мгла 9/3 480 м
[Cb calv Ci sp]
+31.8 +22.4 58 +41 +44 опасность
перегрева
1007.8 1006.8
18 18.01 Ю 2 4000 м мгла 9/3 480 м
[Cb calv Ci sp]
+28.6 +23.6 74 +39 +39 очень
душно
1009.3 1008.3 +33.0
21 18.01 штиль 0 4000 м дымка 8/4 480 м
[Cb calv Ci sp]
+26.8 +25.3 92 +39 +39 очень
душно
1011.1 1010.1
00 19.01 Ю 1 4000 м дымка 8/4 480 м
[Cb calv Ci sp]
+26.0 +25.1 95 +37 +37 очень
душно
1010.5 1009.5
03 19.01 штиль 0 4000 м дымка 6/5 480 м
[Cb calv Ci sp]
+25.7 +24.7 94 +36 +36 очень
душно
1010.1 1009.1
06 19.01 штиль 0 2000 м дымка 9/6 480 м
[Cb calv Ci sp]
+24.0 +23.8 99 +33 +33 очень
душно
1010.7 1009.7 +24.0
09 19.01 штиль 0 2500 м мгла 9/9 480 м
[Cb calv]
+29.0 +24.8 78 +41 +43 опасность
перегрева
1012.4 1011.4
12 19.01 Ю 2 3000 м мгла 6/6 700 м
[Cb calv]
+33.0 +23.9 59 +45 +52 опасность
перегрева
1009.3 1008.3
18 19.01 штиль 0 3000 м мгла 9/3 480 м
[Cb calv Ci sp]
+28.3 +25.1 83 +41 +41 опасность
перегрева
1007.8 1006.8 +33.2
21 19.01 штиль 0 3000 м дымка 8/8 480 м
[Cb calv]
+27.5 +26.0 92 +41 +41 опасность
перегрева
1010.7 1009.7
00 20.01 штиль 0 3000 м дымка 8/8 480 м
[Cb calv]
+26.2 +25.5 96 +38 +38 очень
душно
1010.5 1009.5

 

Местоположение метеостанции Douala (Камерун): широта 4.00 долгота 9.73 высота над уровнем моря 9 м.

В архиве по умолчанию представлена погода в Douala за последнюю неделю. Архивные данные за месяц целиком и за предыдущие месяцы, начиная с января 2011 года, Вы можете получить, выбрав интересующий диапазон дат из раскрывающегося списка и нажав кнопку "Ввод!".

Внимание! Время в таблицах - всемирное. Для получения местного времени необходимо прибавить поправку, которая в Douala равна 1 ч.

Смотрите также архив погоды в соседних городах и на ближайших метеорологических станциях:

Погода в Malabo (Экваториальная Гвинея) (116 км)
Погода в Bata (Экваториальная Гвинея) (233 км)
Погода в Bitam (Габон) (289 км)
Погода в Port Harcourt (Нигерия) (315 км)
Погода в Oyem (Габон) (338 км)
Погода в Libreville (Габон) (396 км)
Погода в Makurdi (Нигерия) (436 км)
Погода в Makokou (Габон) (517 км)
Погода в Souanke (Конго) (524 км)
Погода в Lambarene (Габон) (526 км)

Пояснения к столбцам:

Ветер - указаны скорость ветра в м/с - средняя за 10 мин, порывы в срок и между сроками (в фигурных скобках) и направление, откуда дует ветер: С - северный, СВ - северо-восточный, В - восточный, ЮВ - юго-восточный, Ю - южный, ЮЗ - юго-западный, З - западный, СЗ - северо-западный.
Видимость - горизонтальная дальность видимости в метрах или километрах. При видимости от 1 до 10 км при отсутствии осадков обычно наблюдается дымка, при ухудшении видимости до 1 км и менее - туман. В сухую погоду видимость может ухудшаться дымом, пылью или мглою.
Явления - указаны атмосферные явления, наблюдавшиеся в срок или в последний час перед сроком; фигурными скобками обозначены явления, наблюдавшиеся между сроками (за 1-3 часа до срока); квадратными скобками обозначены град или гололедные отложения с указанием их диаметра в мм.
Облачность - указаны через наклонную черту общая и нижняя облачность в баллах и высота нижней границы облаков в метрах; квадратными скобками обозначены формы облаков: Ci - перистые, Cs - перисто-слоистые, Cc - перисто-кучевые, Ac - высококучевые, As - высокослоистые, Sc - слоисто-кучевые, Ns - слоисто-дождевые, Cu - кучевые, Cb - кучево-дождевые. Подробнее классификацию облаков см. в Атласе облаков (PDF).
T - Температура воздуха - температура, измеренная на высоте 2 м над землей.
Td - Температура точки росы - температура, при понижении до которой содержащийся в воздухе водяной пар достигнет насыщения.
f - Относительная влажность воздуха - влажноcть воздуха, измеренная на высоте 2 м над землей.
Te - Эффективная температура - температура, которую ощущает одетый по сезону человек в тени. Характеристика душности погоды. При расчете учитывается влияние влажности воздуха и скорости ветра на теплоощущения человека.
Tes - Эффективная температура на солнце - температура, которую ощущает человек, с поправкой на солнечный нагрев. Характеристика знойности погоды. Зависит от высоты солнца над горизонтом, облачности и скорости ветра. Ночью, в пасмурную погоду, а также при ветре 12 м/с и более поправка равна нулю.
P - Атмосферное давление - приведенное к уровню моря атмосферное давление.
Po - Атмосферное давление - измеренное на уровне метеостанции атмосферное давление.
Tmin - Минимальная температура - минимум температуры воздуха на высоте 2 м над землей.
Tmax - Максимальная температура - максимум температуры воздуха на высоте 2 м над землей.
R - Количество осадков - Количество выпавших осадков за период времени, мм. При наведении курсора мыши на число - период времени, за который выпало указанное количество осадков.
R24 - Количество осадков - Количество выпавших осадков за 24 часа, мм.
S - Снежный покров - Высота снежного покрова, см. При наведении курсора мыши на число - состояние снежного покрова и степень покрытия местности в баллах.